Location: Cheyres
(46.8153°N, 6.7877°E)
Time: 15:16:45
(UTC+00:00)

Cosmos 990 Rocket - Pass Details

Date: 28 September 2021
Orbit: 746 x 769 km, 74.0° (Epoch: 18 October)

Event Time Altitude Azimuth Distance (km) Brightness Sun altitude
Rises 20:30:52 0° 232° (SW) 3,190 7.4 -32.0°
Reaches altitude 10° 20:33:30 10° 244° (WSW) 2,273 6.7 -32.3°
Maximum altitude 20:37:57 29° 304° (NW) 1,371 5.8 -32.9°
Drops below altitude 10° 20:42:28 10° 4° (N) 2,299 6.8 -33.5°
Sets 20:45:10 0° 16° (NNE) 3,233 7.5 -33.9°
